Location: Newark
(45.8378°N, 5.5389°E)
Time: 14:10:23
(UTC+00:00)

YUBILEINY - Pass Details

Date: 23 December 2019
Orbit: 1478 x 1509 km, 82.5° (Epoch: 18 January)

Event Time Altitude Azimuth Distance (km) Brightness Sun altitude
Rises 04:37:58 0° 356° (N) 4,611 ? -26.6°
Reaches altitude 10° 04:41:57 10° 12° (NNE) 3,629 ? -25.9°
Maximum altitude 04:48:05 21° 58° (ENE) 2,887 ? -24.8°
Drops below altitude 10° 04:54:12 10° 103° (ESE) 3,628 ? -23.8°
Sets 04:58:08 0° 119° (ESE) 4,609 ? -23.1°
